Location: ČR
(50.0000°N, 15.0000°E)
Time: 12:57:08
(UTC+00:00)

ISS - Pass Details

Date: 04 October 2021
Orbit: 417 x 423 km, 51.6° (Epoch: 16 October)

Event Time Altitude Azimuth Distance (km) Brightness Sun altitude
Rises 17:30:49 0° 287° (WNW) 2,365 2.0 -10.3°
Reaches altitude 10° 17:33:03 10° 277° (W) 1,499 0.7 -10.7°
Maximum altitude 17:36:04 31° 213° (SSW) 760 -2.2 -11.2°
Drops below altitude 10° 17:39:04 10° 149° (SSE) 1,494 -1.3 -11.6°
Enters shadow 17:39:22 - 147° (SSE) 1,605 -1.2 -11.7°
